COSMOS 2251 DEB

Satellite information

Favourite Embed

Satellite Type and Status

DEBRISIN ORBIT

Key statistics

Satellite COSMOS 2251 DEB at a glance.

Uptime

11709

Days in orbit

Revolutions

≈ 15.2

Per day

Orbit

LEO

Low Earth Orbit

Inclination

74.0

Latest

Satellite identification and parameters

Extended collection of information and parameters for COSMOS 2251 DEB.

Object identification

Identified? True

Debris? True

Object name: COSMOS 2251 DEB

International designator: 1993-036BFF

Object number (NORAD): 37085

Object ID (CCSDS): 37085

Country: COMMONWEALTH OF INDEPENDENT STATES (CIS)

Current information (Y/N): Y

RCS size: SMALL

Orbital parameters

Period: 94.715 minutes

Inclination: 73.9561 deg

SMA: 6882.915 km

Apoapsis: 528.384 km

Periapsis: 481.175 km

RAAN: 202.5989 deg

Eccentricy: 0.0034294

Argument of periapsis: 61.4897 deg

Mean anomaly: 298.9746 deg

Mean motion: 15.20352122 rev/day

Mean motion (dot): 0.0002241 rev/day2

B* drag term: 0.0010124 1/REarth

Two-line elements (TLE)

Creation date: July 3, 2025, 5:26 p.m.

Reference frame: TEME

Reference center: EARTH

Epoch: July 3, 2025, 7:34 a.m. UTC

TLE line 0: 0 COSMOS 2251 DEB

TLE line 1: 1 37085U 93036BFF 25184.31571621 .00022410 00000-0 10124-2 0 9999

TLE line 2: 2 37085 73.9561 202.5989 0034294 61.4897 298.9746 15.20352122646563

Live tracking on map

Real-time ground track for satellite COSMOS 2251 DEB.

In-orbit conjunctions

A list of the most updated potential collisions computed for object COSMOS 2251 DEB.

Target Orbit TCA Probability of collision Miss distance Type
DUMMY MASS 1 LEO 2024-09-26 13:50:16 0.0002542778 206.0 (m) PAYLOAD

Associated space launch

Military communications satellite. Destroyed in a collision with Iridium 33.

COSMOS 2251 DEB was lifted into orbit during the mission ‘Kosmos-3M | Strela-2M 51’, on board a Kosmos-3M space rocket.

The launch took place on June 16, 1993, 4:17 a.m. from 132/1 (132L).

For more information about the launch, click the button.

Launch to space Kosmos-3M | Strela-2M 51
Kosmos-3M | Strela-2M 51

Agency: N/A

Status: Launch Successful

Launch date: June 16, 1993, 4:17 a.m. UTC

Rocket: Kosmos-3M

Launch pad: 132/1 (132L)

Location: Plesetsk Cosmodrome, Russian Federation

...

Latest news about this satellite

There are no fresh news available about this satellite. Check back as we update our databases every day.


Newsletter sign-up

Weekly statistics, charts and insights to help you stay on top of the space industry.